Find Starlink 33676

NORAD ID: 63403 Int'l Des: 2025-065 Owner: SPXS Country: US Constellation: starlink operational
LEOCIRCULAR

Live Position

Loading 3D Globe...

About Starlink 33676

Description loading...

Upcoming Passes

Passes for default location (London). Set your location on the main map for personalized predictions.

Altitude History

Loading altitude history...

Two-Line Element Set

1 63403U 25065E 26123.43108044 .00020911 00000-0 76684-3 0 9999
2 63403 43.0002 157.7788 0001767 266.9951 93.0699 15.27597834 61216
Epoch: May 3, 2026 • Age: 15 hours

Current Status

Altitude 484.8 km
Velocity 7.62 km/s
Sub-Earth Point -12.51°S, 105.98°E
Launch Date Mar 31, 2025
Age 1 years
Type internet

Technical Details

Classification Payload
Mass 575.00 kg
Dry Mass 530.00 kg
Total Mass 575.00 kg
Length 0.30 m
Diameter 4.10 m
Span 29.00 m
Shape Box + pan
Manufacturer SPXS
Bus Type Starlink V2MO
Phase Status In Orbit
Owner/State SPXS/US

Most Searched